Погода в Катовице

Польша     50°15′57″N   19°01′22″E
темп.,
°C
ветер,
м/с
пор.,
м/с
влажн.,
%
обл.,
%
осадки,
мм/ч
давл.,
гПа
погр.,
м
1 марта, пн
пн101:00+3ссз358579 0.0 1034487
04:00+2ссз2487100 0.0 1034320
07:00+2ссз2386100 0.0 1035300
10:00+3ссз2283100 0.0 1036341
13:00+5с227095 0.0 1036604
16:00+6св116610 0.0 1035520
19:00+3всв11795 0.0 103622
22:00+2ю11830 0.0 103622
2 марта, вт
вт201:00+1ююз11860 0.0 103622
04:00+1юз22860 0.0 103528
07:00+1юз22830 0.0 103560
10:00+6зюз36620 0.0 1034313
13:00+10зюз35480 0.0 1033473
16:00+10з24480 0.0 1032360
19:00+7зюз22630 0.0 103333
22:00+5з11740 0.0 103422
3 марта, ср
ср301:00+4юз00820 0.0 103322
04:00+3ю11850 0.0 103222
07:00+2ююз11850 0.0 103222
10:00+7ю11630 0.0 1031221
13:00+11ююз12470 0.0 1029485
16:00+11ююз12450 0.0 1026472
19:00+7юз25616 0.0 1026130
22:00+7юз4126371 0.0 1024423
4 марта, чт
чт401:00+5юз4117035 0.0 1022401
04:00+4юз411750 0.0 1020317
07:00+4юз49781 0.0 1019269
10:00+8юз476363 0.0 1017335
13:00+11зюз465441 0.0 1015735
16:00+11зюз365491 0.0 10131074
19:00+9зсз237494 0.0 1013229
22:00+8сз1282100 0.1 1012207
5 марта, пт
пт501:00+6с2390100 1.1 1010276
04:00+5ссз1291100 1.9 1009216
07:00+5ссз2392100 3.1 1008293
10:00+3с4794100 3.4 1009469
13:00+3сз4794100 5.9 1012454
16:000с5992100 2.0 1015620
19:000с4976100 2.3 10191049
22:00−1с485967 0.0 1023603